Вернуться в каталог

ATLAS 5 CENTAUR DEB

АктивенHEO
NORAD 44895·DEBRIS·🇺🇸 United States

Запущен Oct 17, 2018 с Cape Canaveral Space Force Station

Loading…

Ближайшие Пролёты (ближайшие 24 часа)

TLE

СвежийSource: Space-Track

Эпоха: Sep 10, 2026, 07:15 UTC

1 44895U 18079BJ  26253.30262840 -.00000180  00000-0  00000-0 0  9998
2 44895  13.1668  32.8091 4299994 323.1034  13.7865  1.87751695 47912

Отслеживайте ATLAS 5 CENTAUR DEB в реальном времени с AllMySat

Download on the App Store